Tracking 29892 objects as of 21-Nov-2024
HD Live streaming from Space Station
objects crossing your sky now

STARLINK-1533

Track STARLINK-1533 now!
10-day predictions
STARLINK-1533 is classified as:


NORAD ID: 46069
Int'l Code: 2020-055AU
Perigee: 553.3 km
Apogee: 555.3 km
Inclination: 53.1 °
Period: 95.6 minutes
Semi major axis: 6925 km
RCS: Unknown
Launch date: August 7, 2020
Source: United States (US)
Launch site: AIR FORCE EASTERN TEST RANGE (AFETR)
Your satellite tracking list
Your tracking list is empty




NASA's NSSDC Master Catalog

Two Line Element Set (TLE):
1 46069U 20055AU  24325.28861269  .00003911  00000-0  28122-3 0  9997
2 46069  53.0516  66.2845 0001439  82.6098 277.5054 15.06408563237817
Source of the keplerian elements: AFSPC